Location: Babice
(50.3480°N, 22.9363°E)
Time: 11:44:27
(UTC+00:00)

Meteor 1-4 Rocket - Pass Details

Date: 14 July 2020
Orbit: 449 x 502 km, 81.2° (Epoch: 07 August)

Event Time Altitude Azimuth Distance (km) Brightness Sun altitude
Rises 00:15:21 0° 333° (NNW) 2,590 6.8 -14.6°
Reaches altitude 10° 00:18:03 10° 313° (NW) 1,692 5.5 -14.4°
Maximum altitude 00:20:27 17° 272° (W) 1,315 4.5 -14.3°
Enters shadow 00:21:22 15° 254° (WSW) 1,368 4.5 -14.2°
